TimeMST,TemperatureF,Dew PointF,Humidity,Sea Level PressureIn,VisibilityMPH,Wind Direction,Wind SpeedMPH,Gust SpeedMPH,PrecipitationIn,Events,Conditions,WindDirDegrees,DateUTC
12:29 AM,8.6,5.0,85,30.09,10.0,Calm,Calm,-,N/A,,Overcast,0,2012-12-17 07:29:00
12:53 AM,10.0,7.0,87,30.15,10.0,Calm,Calm,-,N/A,,Overcast,0,2012-12-17 07:53:00
1:53 AM,8.1,5.0,87,30.16,7.0,Calm,Calm,-,N/A,,Mostly Cloudy,0,2012-12-17 08:53:00
2:01 AM,8.6,5.0,85,30.08,6.0,NNE,4.6,-,N/A,,Scattered Clouds,30,2012-12-17 09:01:00
2:53 AM,8.1,3.9,83,30.16,8.0,Calm,Calm,-,N/A,,Partly Cloudy,0,2012-12-17 09:53:00
3:19 AM,12.2,8.6,85,30.07,8.0,Calm,Calm,-,N/A,,Mostly Cloudy,0,2012-12-17 10:19:00
3:53 AM,12.9,10.9,92,30.14,10.0,Calm,Calm,-,N/A,,Overcast,0,2012-12-17 10:53:00
4:53 AM,21.0,19.0,92,30.10,10.0,SSW,5.8,-,N/A,,Overcast,200,2012-12-17 11:53:00
5:53 AM,16.0,14.0,92,30.14,10.0,Calm,Calm,-,N/A,,Scattered Clouds,0,2012-12-17 12:53:00
6:53 AM,7.0,3.9,87,30.22,10.0,Calm,Calm,-,N/A,,Clear,0,2012-12-17 13:53:00
7:53 AM,6.1,1.9,83,30.25,10.0,Calm,Calm,-,N/A,,Scattered Clouds,0,2012-12-17 14:53:00
8:04 AM,5.0,1.4,85,30.10,10.0,Calm,Calm,-,N/A,,Mostly Cloudy,0,2012-12-17 15:04:00
8:50 AM,8.6,6.8,92,30.11,9.0,Calm,Calm,-,N/A,,Scattered Clouds,0,2012-12-17 15:50:00
8:53 AM,9.0,7.0,92,30.27,9.0,Calm,Calm,-,N/A,,Scattered Clouds,0,2012-12-17 15:53:00
9:08 AM,10.4,8.6,92,30.11,10.0,Calm,Calm,-,N/A,,Mostly Cloudy,0,2012-12-17 16:08:00
9:53 AM,17.1,16.0,96,30.23,8.0,Calm,Calm,-,N/A,,Overcast,0,2012-12-17 16:53:00
10:53 AM,25.0,23.0,92,30.19,7.0,Calm,Calm,-,N/A,,Overcast,0,2012-12-17 17:53:00
11:53 AM,28.9,24.1,82,30.17,10.0,SSW,5.8,-,N/A,,Overcast,210,2012-12-17 18:53:00
12:53 PM,30.0,24.1,79,30.12,10.0,WNW,8.1,-,N/A,,Overcast,300,2012-12-17 19:53:00
1:23 PM,32.0,24.8,75,30.05,10.0,WNW,9.2,-,N/A,,Mostly Cloudy,290,2012-12-17 20:23:00
1:53 PM,30.0,23.0,75,30.12,10.0,West,10.4,-,0.00,,Mostly Cloudy,260,2012-12-17 20:53:00
2:20 PM,30.2,24.8,80,30.05,10.0,West,9.2,-,N/A,,Overcast,270,2012-12-17 21:20:00
2:53 PM,28.9,24.1,82,30.12,10.0,WSW,5.8,-,N/A,,Overcast,250,2012-12-17 21:53:00
5:53 PM,30.9,26.1,82,30.06,10.0,West,6.9,-,N/A,,Overcast,270,2012-12-18 00:53:00
6:53 PM,30.9,25.0,79,30.11,10.0,West,6.9,-,N/A,,Overcast,270,2012-12-18 01:53:00
7:53 PM,30.9,26.1,82,30.09,10.0,WSW,4.6,-,N/A,,Overcast,240,2012-12-18 02:53:00
8:53 PM,32.0,26.1,79,30.06,10.0,West,4.6,-,N/A,,Overcast,260,2012-12-18 03:53:00
9:53 PM,32.0,27.0,82,30.02,10.0,Calm,Calm,-,N/A,,Overcast,0,2012-12-18 04:53:00
10:53 PM,32.0,27.0,82,29.97,10.0,South,6.9,-,N/A,,Overcast,180,2012-12-18 05:53:00
11:01 PM,30.2,28.4,93,29.99,10.0,SSW,8.1,-,N/A,,Overcast,200,2012-12-18 06:01:00
11:53 PM,30.0,27.0,88,29.94,10.0,South,3.5,-,N/A,,Overcast,190,2012-12-18 06:53:00